{"data":{"norad_id":51770,"intl_designator":"2022-017C","name":"STARLINK-3612","alt_names":[],"object_type":"PAYLOAD","status":"ACTIVE","operator":null,"country":"US","launch_date":"2022-02-25","launch_site_code":"AFWTR","launch_vehicle":null,"mission":null,"orbit_class":"UNKNOWN","rcs_meters":null,"size_class":null,"mass_kg":null,"dimensions":null,"purposes":["comms"],"wikipedia_slug":null,"has_3d_model":false,"image_url":null,"decayed_at":null,"tle_current":{"epoch":"2026-09-20T03:47:27.158208Z","epoch_age_seconds":81814,"freshness":"FRESH","line1":"1 51770U 22017C   26263.15795322  .00001031  00000+0  42689-4 0  9992","line2":"2 51770  53.1612 173.4704 0001265  83.7250 276.3896 15.33550214252149","mean_motion":15.33550214,"eccentricity":0.0001265,"inclination_deg":53.1612,"raan_deg":173.4704,"arg_perigee_deg":83.725,"mean_anomaly_deg":276.3896,"bstar":4.2689e-5,"rev_number":25214,"period_min":93.8997619285,"perigee_km":464.36446359193,"apogee_km":466.09583548076,"semimajor_km":6843.3671495363,"source":"CELESTRAK","updated_at":"2026-09-20T09:00:39.936117Z"}}}